Back to catalog

FFLY-1

AliveScienceSSO
NORAD 65320·PAYLOAD·🇺🇸 United States

Launched Aug 26, 2025 from Vandenberg Space Force Base

Loading…

Next Passes (next 24 hours)

TLE

FreshSource: Space-Track

Epoch: Sep 14, 2026, 12:36 UTC

1 65320U 25188F   26257.52524091  .00000661  00000-0  69316-4 0  9992
2 65320  97.7311 331.2258 0008425 232.6575 127.3878 14.92831595 57239

Track FFLY-1 in real time with AllMySat

Download on the App Store